Location: Caltech
(34.1382°N, 118.1253°W)
Time: 22:22:24
(UTC-07:00)

Gurwin Techsat 1B - Visible Passes

Search period start: 03 August 2015 00:00
Search period end: 13 August 2015 00:00
Orbit: 812 x 814 km, 98.5° (Epoch: 03 August)

Date Brightness Start Highest point End Pass type
(mag) Time Alt. Az. Time Alt. Az. Time Alt. Az.
03 Aug 8.9 03:05:48 10° NNE 03:10:51 63° E 03:10:51 63° E visible
03 Aug 10.5 04:47:47 10° NNW 04:50:35 14° WNW 04:52:03 12° W visible
04 Aug 9.8 02:43:23 10° NNE 02:47:45 36° E 02:47:45 36° E visible
04 Aug 9.9 04:23:53 10° NNW 04:28:03 23° WNW 04:28:58 22° W visible
05 Aug 10.5 02:21:20 10° NE 02:24:40 22° E 02:24:40 22° E visible
05 Aug 9.2 04:00:34 10° N 04:05:27 37° WNW 04:05:52 37° W visible
06 Aug 11.1 02:00:08 10° ENE 02:01:34 12° E 02:01:34 12° E visible
06 Aug 8.6 03:37:33 10° N 03:42:47 62° WNW 03:42:47 62° WNW visible
07 Aug 8.7 03:14:46 10° NNE 03:19:41 73° NE 03:19:41 73° NE visible
07 Aug 10.6 04:57:46 10° NW 04:59:30 11° WNW 05:00:52 10° W visible
08 Aug 9.5 02:52:13 10° NNE 02:56:35 43° ENE 02:56:35 43° ENE visible
08 Aug 10.1 04:33:16 10° NNW 04:36:59 19° WNW 04:37:47 18° W visible
09 Aug 10.3 02:30:00 10° NE 02:33:30 26° ENE 02:33:30 26° ENE visible
09 Aug 9.5 04:09:46 10° N 04:14:24 30° WNW 04:14:43 30° WNW visible
10 Aug 11.0 02:08:19 10° NE 02:10:24 15° ENE 02:10:24 15° ENE visible
10 Aug 8.9 03:46:38 10° N 03:51:36 50° WNW 03:51:36 50° WNW visible
11 Aug 8.7 03:23:46 10° NNE 03:28:30 71° N 03:28:30 71° N visible
12 Aug 9.3 03:01:07 10° NNE 03:05:24 50° ENE 03:05:24 50° ENE visible
12 Aug 10.3 04:42:46 10° NNW 04:45:54 15° WNW 04:46:37 15° WNW visible
